User: anonymous   Login
Location: Unspecified
(0.0000°N, 0.0000°E)
Time: 18:50:38
(UTC+00:00)
Language:

Nova 3 - Orbit

View from above orbital plane
View from above orbital plane
View from above satellite
View from above satellite

Ground track
Ground track

The orbit data is extracted from the following two-line orbital elements,

1 15362U 84110A   17145.86140528 +.00000060 +00000-0 +12305-3 0  9993
2 15362 090.0494 054.7515 0030271 298.2232 103.1944 13.22731418574126
Epoch (UTC): 25 May 2017 20:40:25
Eccentricity: 0.0030271
inclination: 90.0494°
perigee height: 1151 km
apogee height: 1197 km
right ascension of ascending node: 54.7515°
argument of perigee: 298.2232°
revolutions per day: 13.22731418
mean anomaly at epoch: 103.1944°
orbit number at epoch: 57412

The dashed part of the orbit path shows where the satellite is in the earth's shadow,  

DLR